Regional Weather Roundup
Issued by NWS

Home | Current Version | Previous Version | Text Only | Print | Product List | Glossary On
Versions: 1 2 3 4 5 6 7 8 9 10 11 12 13 14 15 16 17 18 19 20 21 22 23 24 25 26 27 28 29 30 31 32 33 34 35 36 37 38 39 40 41 42 43 44 45 46 47 48 49 50
000
ASUS43 KIND 070109
RWRIN

WEATHER ROUNDUP FOR INDIANA
NATIONAL WEATHER SERVICE INDIANAPOLIS IN
800 PM EST SAT FEB 06 2016

NOTE: "FAIR" INDICATES FEW OR NO CLOUDS BELOW 12,000 FEET WITH NO
SIGNIFICANT WEATHER AND/OR OBSTRUCTIONS TO VISIBILITY.

* - STATION DOES NOT REPORT WEATHER SUCH AS PRECIPITATION OR FOG.

+ - STATION NOT QUALITY CONTROLLED BY THE NATIONAL WEATHER SERVICE.
    USE DATA WITH CAUTION...ESPECIALLY DEWPOINT AND RELATIVE
    HUMIDITY OBSERVATIONS.

INZ001>003-010>013-019-020-070200-
NORTHWEST INDIANA

CITY           SKY/WX    TMP DP  RH WIND       PRES   REMARKS
GARY /AIRPORT/ CLEAR     32  27  80 S5        30.17S WCI  27
LA PORTE +     PTCLDY    30  28  92 CALM      30.17F
MICHIGAN CITY+ CLEAR     32  28  86 S3        30.17F
MONTICELLO +   CLEAR     33  24  69 S3        30.18F
RENSSELAER +   CLEAR     34  28  80 S6        30.18S WCI  29
VALPARAISO     CLEAR     35  28  75 S5        30.17S WCI  31

$$

LMZ046-743>745-070200-
SOUTHERN LAKE MICHIGAN

STATION/POSITION TIME  TEMP    WIND        PRES    WAVE
                       AIR SEA DIR/SP/G            HT
                 (UTC) (F)     (DEG/KT/KT) (MB)    (FT)
BURNS HARBOR     0000   37     190/  5/  6 1022.0S
MICHIGAN CITY    0000   38     170/  7/  8   N/A

$$

INZ004-005-014>016-021>024-070200-
NORTH CENTRAL INDIANA

CITY           SKY/WX    TMP DP  RH WIND       PRES   REMARKS
GOSHEN         CLEAR     33  27  78 SW8       30.17S WCI  26
LOGANSPORT +   CLEAR     32  27  80 S5        30.20S WCI  27
PERU/GRISSOM   CLEAR     31  26  83 S6        30.18S WCI  25
ROCHESTER +    CLEAR     34  27  75 S5        30.19S WCI  30
SOUTH BEND     CLEAR     31  25  78 S6        30.18S WCI  25
WARSAW +       CLEAR     32  27  80 CALM      30.18F

$$

INZ006>009-017-018-025>027-070200-
NORTHEAST INDIANA

CITY           SKY/WX    TMP DP  RH WIND       PRES   REMARKS
AUBURN +       PTCLDY    34  27  75 CALM      30.19S
FORT WAYNE     PTCLDY    30  25  81 S8        30.20F WCI  22
HUNTINGTON +   CLEAR     32  23  69 CALM      30.19F

$$

INZ028-029-035-036-043>045-051>053-070200-
WEST CENTRAL INDIANA

CITY           SKY/WX    TMP DP  RH WIND       PRES   REMARKS
GREENCASTLE +  CLEAR     36  19  51 S3        30.21S
LAFAYETTE      CLEAR     37  26  64 S5        30.18F
TERRE HAUTE    CLEAR     35  26  69 CALM      30.21S

$$

INZ030>032-037>040-046>048-054>057-064-065-070200-
CENTRAL INDIANA

CITY           SKY/WX    TMP DP  RH WIND       PRES   REMARKS
FISHERS *+     CLEAR     34  28  80 S3        30.21
FRANKFORT +    CLEAR     34  24  66 SE3       30.21S
GREENWOOD *+   CLEAR     37  28  70 S3        30.22F
INDIANAPOLIS   CLEAR     37  23  56 S7        30.20F
-EAGLE CREEK   CLEAR     37  24  59 CALM      30.20F
KOKOMO *+        N/A     34  27  75 S5        30.20S WCI  30
MARION +       CLEAR     32  22  67 CALM      30.20S
MT COMFORT *+  CLEAR     36  25  64 S5        30.21F
SHELBYVILLE    CLEAR     36  25  64 S7        30.21F
ZIONSVILLE +   CLEAR     33  27  77 S5        30.21S WCI  28

$$

INZ033-034-041-042-049-050-058-059-070200-
EAST CENTRAL INDIANA

CITY           SKY/WX    TMP DP  RH WIND       PRES   REMARKS
MUNCIE         CLEAR     37  25  61 S7        30.20F

$$

INZ060-061-067>069-081>083-085>088-070200-
SOUTHWEST INDIANA

CITY           SKY/WX    TMP DP  RH WIND       PRES   REMARKS
EVANSVILLE     CLEAR     43  24  47 CALM      30.26S
HUNTINGBURG *+ CLEAR     41  27  56 S5        30.26S
WASHINGTON +   CLEAR     36  29  74 S7        30.24S

$$

INZ062-063-066-070>080-084-089>092-070200-
SOUTH CENTRAL AND SOUTHEAST INDIANA

CITY           SKY/WX    TMP DP  RH WIND       PRES   REMARKS
BEDFORD +      CLEAR     41  27  56 S3        30.24
BLOOMINGTON    CLEAR     34  25  69 CALM      30.22F
MADISON *+     CLEAR     36  27  69 CALM      30.27S
NORTH VERNON + CLEAR     36  25  64 CALM      30.24
SEYMOUR +      CLEAR     37  27  65 S3        30.25S

$$




USA.gov is the U.S. government's official web portal to all federal, state and local government web resources and services.